BISONSAT

Last updated on Sun Apr 12 2026 00:03:55 GMT+0000 (Coordinated Universal Time)

1 40974U 15058L 26101.51506538 .00012489 00000+0 63032-3 0 9996 2 40974 64.7616 28.9543 0078022 76.4851 284.4951 15.14756989105517
UTC large
Height (km)
Speed (km/s)
/
Latitude / Longitude
Inclination (degrees)
Orbital Period (minutes)
Azimuth
Elevation
Range (km)
Doppler Factor

Next 0 passes for location: London (51.5072 / 0.1276)

Sorry there are no passes over London.